Weather History for Denver Centennial, CO

Change the Weather History Date:

Wednesday, November 28, 2012

  Actual Average Record
Temperature  
Mean Temperature 42 °F -  
Max Temperature 58 °F 45 °F 71 °F (1998)
Min Temperature 26 °F 22 °F 5 °F (2001)
Degree Days  
Heating Degree Days 23    
Month to date heating degree days 588  
Moisture  
Dew Point 5 °F    
Average Humidity 21    
Maximum Humidity 33    
Minimum Humidity 8    
Precipitation  
Precipitation 0.00 in - - ()
Month to date precipitation 0.23  
Year to date precipitation 13.64  
Sea Level Pressure  
Sea Level Pressure 30.15 in    
Wind  
Wind Speed 7 mph (SSE)    
Max Wind Speed 13 mph    
Max Gust Speed 13 mph    
Visibility 10 miles    
Events      
Averages and records for this station are not official NWS values.
T = Trace of Precipitation, MM = Missing Value Source: NWS Daily Summary

Daily Weather History Graph

Daily Weather History Graph

Search for Another Location

Airport:

Trip Planner

Search our weather history database for the weather conditions in past years. The results will help you decide how hot, cold, wet, or windy it might be!

Date:

Astronomy

Nov. 28, 2012 Rise Set
Actual Time 6:58 AM MST 4:36 PM MST
Civil Twilight 6:28 AM MST 5:06 PM MST
Nautical Twilight 5:55 AM MST 5:39 PM MST
Astronomical Twilight 5:23 AM MST 6:11 PM MST
Moon 4:53 PM MST (11/28) 6:57 AM MST (11/28)
Length of Visible Light 10h 37m
Length of Day
9h 38m
Full, 100% of the Moon is Illuminated
Nov 28
Full
Dec 6
Last Quarter
Dec 13
New
Dec 19
First Quarter
Dec 28
Full

Hourly Weather History & Observations

Time (MST) Temp. Windchill Dew Point Humidity Pressure Visibility Wind Dir Wind Speed Gust Speed Precip Events Conditions
12:53 AM 35.1 °F 26.9 °F 3.0 °F 26% 30.21 in 10.0 mi South 11.5 mph - N/A   Partly Cloudy
1:53 AM 35.1 °F 27.9 °F 5.0 °F 28% 30.19 in 10.0 mi South 9.2 mph - N/A   Partly Cloudy
2:53 AM 35.1 °F 27.4 °F -0.9 °F 22% 30.18 in 10.0 mi South 10.4 mph - N/A   Clear
3:53 AM 30.9 °F 25.2 °F -0.0 °F 27% 30.19 in 10.0 mi SSE 5.8 mph - N/A   Clear
4:53 AM 30.9 °F 26.2 °F 1.0 °F 28% 30.21 in 10.0 mi SSE 4.6 mph - N/A   Partly Cloudy
5:53 AM 35.1 °F 29.3 °F -0.9 °F 22% 30.21 in 10.0 mi South 6.9 mph - N/A   Scattered Clouds
6:53 AM 32.0 °F 24.8 °F 1.0 °F 27% 30.27 in 10.0 mi South 8.1 mph - N/A   Mostly Cloudy
7:53 AM 34.0 °F 29.8 °F 3.9 °F 28% 30.30 in 10.0 mi SSE 4.6 mph - N/A   Mostly Cloudy
8:53 AM 45.0 °F 42.6 °F 6.1 °F 20% 30.24 in 10.0 mi South 4.6 mph - N/A   Mostly Cloudy
9:53 AM 48.0 °F - 10.9 °F 22% 30.23 in 10.0 mi East 5.8 mph - N/A   Mostly Cloudy
10:53 AM 54.0 °F - 5.0 °F 14% 30.19 in 10.0 mi East 3.5 mph - N/A   Mostly Cloudy
11:53 AM 57.0 °F - -4.0 °F 8% 30.12 in 10.0 mi East 6.9 mph - N/A   Mostly Cloudy
12:53 PM 57.9 °F - -2.9 °F 8% 30.09 in 10.0 mi ENE 3.5 mph - N/A   Mostly Cloudy
1:53 PM 57.0 °F - -0.9 °F 9% 30.06 in 10.0 mi NE 4.6 mph - N/A   Mostly Cloudy
2:53 PM 55.9 °F - 1.9 °F 11% 30.06 in 10.0 mi Calm Calm - N/A   Mostly Cloudy
3:53 PM 51.1 °F - 10.0 °F 19% 30.09 in 10.0 mi Calm Calm - N/A   Mostly Cloudy
4:53 PM 46.9 °F - 12.0 °F 24% 30.12 in 10.0 mi Calm Calm - N/A   Mostly Cloudy
5:53 PM 45.0 °F - 12.9 °F 27% 30.11 in 10.0 mi Calm Calm - N/A   Mostly Cloudy
6:53 PM 39.0 °F 34.0 °F 12.0 °F 33% 30.14 in 10.0 mi SW 6.9 mph - N/A   Mostly Cloudy
7:53 PM 37.9 °F 35.5 °F 9.0 °F 30% 30.14 in 10.0 mi South 3.5 mph - N/A   Mostly Cloudy
8:53 PM 37.9 °F 31.5 °F 8.1 °F 29% 30.08 in 10.0 mi South 9.2 mph - N/A   Scattered Clouds
9:53 PM 32.0 °F 27.5 °F 7.0 °F 35% 30.10 in 10.0 mi SE 4.6 mph - N/A   Scattered Clouds
10:53 PM 33.1 °F 26.9 °F 6.1 °F 32% 30.07 in 10.0 mi South 6.9 mph - N/A   Scattered Clouds
11:53 PM 28.9 °F - 7.0 °F 40% 30.06 in 10.0 mi Calm Calm - N/A   Scattered Clouds